User: anonymous   Login
Location: Ariel
(45.9570°N, 122.5700°W)
Time: 11:34:52
(UTC-07:00)
Language:

Transit 4A - Orbit

View from above orbital plane
View from above orbital plane
View from above satellite
View from above satellite

Ground track
Ground track

The orbit data is extracted from the following two-line orbital elements,

1   116U 61015A   19199.81455145 -.00000026 +00000-0 +39180-4 0  9997
2   116 066.8109 306.2618 0082204 245.5316 113.7173 13.91755593945254
Epoch (UTC): 18 July 2019 19:32:57
Eccentricity: 0.0082204
inclination: 66.8109°
perigee height: 862 km
apogee height: 982 km
right ascension of ascending node: 306.2618°
argument of perigee: 245.5316°
revolutions per day: 13.91755593
mean anomaly at epoch: 113.7173°
orbit number at epoch: 94525

The dashed part of the orbit path shows where the satellite is in the earth's shadow,  

DLR